Zurück zum Katalog

STARLINK-31853

AktivKommunikationVLEO
NORAD 59933·PAYLOAD·🇺🇸 United States

Gestartet Jun 1, 2024 von Cape Canaveral Space Force Station

Loading…

Nächste Überflüge (nächste 24 Stunden)

TLE

AktuellSource: CelesTrak SupGP

Epoche: Sep 15, 2026, 03:00 UTC

1 59933C 24106M   26258.12548611  .00047721  00000+0  17275-2 0  2585
2 59933  43.0009 342.7086 0001437 272.7866 112.6761 15.27571995    16

Verfolge STARLINK-31853 in Echtzeit mit AllMySat

Download on the App Store